Theta_e
322 322 335 340 343 345 349 353 354 351 350 359 358 359 359 359 358 359 357 354 355 350 350 348 348 350 343 343 342 338 335 333
317 318 320 334 336 347 350 353 354 353 350 354 352 352 355 356 358 360 356 354 355 347 346 344 345 341 338 337 336 336 336 338
317 319 321 326 335 342 350 355 355 354 361 353 351 348 351 351 352 355 355 351 352 348 347 345 342 340 337 339 337 337 340 342
316 318 320 329 330 342 346 358 357 358 355 364 354 349 352 349 350 350 353 350 353 349 349 350 341 340 338 338 343 346 342 342
316 321 324 329 331 336 353 355 360 359 356 360 362 356 353 348 348 354 349 354 355 347 346 347 346 343 350 342 347 345 345 341
319 323 326 337 338 342 348 350 361 360 359 357 359 354 352 351 349 350 351 354 354 348 344 345 345 350 350 348 346 342 340 340
320 325 325 338 335 336 341 351 355 361 360 357 356 360 358 355 351 350 351 351 351 348 344 344 349 349 347 345 345 342 339 339
321 323 324 331 336 340 340 347 362 362 361 359 358 356 355 355 353 349 352 349 350 351 345 346 350 346 345 344 342 342 341 342
317 323 325 328 334 336 341 342 363 362 359 355 354 352 354 354 351 356 352 350 350 347 347 349 347 344 343 344 343 343 338 343
316 319 326 328 332 340 341 343 349 360 355 357 355 353 353 354 355 353 355 352 351 347 347 343 344 342 343 345 341 338 341 343
319 322 323 324 330 336 337 339 345 347 358 357 356 355 353 350 351 352 353 353 353 349 348 344 343 343 342 343 346 342 336 338
317 319 322 324 326 328 331 339 342 343 343 352 352 348 345 346 349 351 349 354 354 350 349 348 345 345 343 345 346 344 342 336
313 316 318 322 325 330 334 338 337 339 343 339 345 344 349 350 351 351 352 353 353 352 351 350 346 346 348 346 345 347 344 339
315 318 320 321 323 324 328 334 337 338 340 345 339 342 344 345 346 345 346 348 351 352 352 352 353 349 351 349 351 349 347 343
312 313 315 318 319 321 322 325 327 332 332 334 337 340 342 343 345 344 345 345 348 349 349 350 351 351 351 352 349 350 349 346
312 313 315 314 317 320 321 322 324 328 330 329 331 332 338 340 345 346 345 344 345 349 351 350 351 352 352 351 349 348 350 346
311 311 313 314 316 319 320 321 323 324 325 330 332 332 331 337 344 346 346 348 348 347 351 350 351 351 352 350 348 347 348 347
311 312 314 316 317 317 322 323 321 322 324 327 326 330 331 333 342 344 346 346 347 348 348 350 350 351 352 350 348 349 350 349
309 311 313 314 315 315 317 318 317 314 319 323 326 325 330 330 336 341 344 344 346 346 349 350 348 350 349 348 347 348 345 345
309 310 311 311 312 313 314 317 317 316 317 320 323 323 329 331 334 339 342 342 344 346 333 337 346 342 337 341 342 345 344 345
Wind_Speed
6 6 3 10 12 13 19 19 16 14 10 11 7 7 7 7 11 10 9 7 7 6 6 6 6 8 5 7 6 5 7 6
10 8 11 5 12 5 13 18 16 15 9 10 11 8 8 8 9 12 8 5 5 6 7 8 7 6 7 7 5 7 8 8
10 10 11 11 4 10 22 16 14 12 7 10 11 10 10 9 10 10 8 8 6 8 5 8 8 8 8 6 6 8 7 6
13 13 11 8 9 8 13 3 13 12 10 5 7 10 11 9 8 10 12 10 6 7 6 5 8 6 9 7 6 5 5 5
10 9 10 9 9 8 12 13 15 12 10 8 4 8 7 10 8 10 14 12 9 11 8 6 6 8 6 7 6 5 5 6
7 7 8 4 6 8 4 10 15 14 12 9 6 7 9 10 11 10 16 12 8 9 10 9 8 6 5 4 4 4 4 5
10 9 7 2 3 5 7 9 11 16 13 11 11 7 7 6 9 10 15 16 12 11 7 8 6 4 4 4 3 3 4 5
8 8 8 4 4 1 4 7 3 12 10 9 8 10 9 9 9 12 13 12 14 8 9 7 7 5 4 5 5 6 5 5
8 8 7 5 1 3 2 6 6 3 6 9 9 11 11 10 12 12 13 15 15 14 8 7 10 9 7 7 6 7 7 5
11 8 8 6 6 5 6 5 7 7 7 8 10 10 11 11 10 13 11 16 17 15 13 11 11 11 13 13 13 9 5 7
6 6 8 8 8 8 8 8 8 7 10 8 8 10 10 9 13 13 16 18 19 19 17 15 13 13 11 10 9 11 9 7
10 9 12 12 7 5 7 7 7 6 8 7 12 13 14 13 11 13 15 18 20 20 19 18 12 8 11 9 9 8 6 8
12 12 13 11 9 6 4 3 2 5 7 7 6 14 12 12 12 14 15 14 18 20 18 16 16 11 13 13 12 11 9 5
13 12 11 12 11 9 8 7 5 6 8 7 10 11 15 13 13 10 12 13 14 18 18 16 15 16 12 12 10 14 12 11
7 11 13 12 13 13 12 12 10 8 8 9 11 12 14 17 16 12 13 13 12 16 18 17 15 18 19 15 15 15 15 12
6 8 8 11 10 11 10 12 11 11 9 10 12 15 11 12 16 14 12 12 13 18 15 17 21 19 18 17 13 13 14 12
10 11 10 8 10 9 12 11 11 10 13 10 10 13 16 15 16 17 14 15 14 18 18 21 22 22 21 18 13 14 13 12
7 10 8 6 7 9 8 10 12 11 14 11 12 13 13 17 15 17 18 18 21 21 23 27 22 21 19 17 14 18 14 12
10 10 10 10 9 10 10 9 11 15 14 14 11 15 16 14 16 19 16 18 20 18 22 25 25 20 20 20 18 17 16 13
13 14 13 12 12 12 14 9 11 14 15 12 11 16 16 13 14 18 18 17 20 23 6 7 19 14 6 17 17 17 15 13
Wind_Direction
249 286 240 283 186 169 160 162 165 182 207 152 169 172 180 184 185 176 200 198 177 197 140 157 163 181 191 188 194 215 219 229
337 337 303 202 303 214 158 163 163 171 191 158 166 178 180 182 196 183 188 201 192 180 161 173 177 174 212 182 199 205 223 236
293 279 262 283 218 120 309 164 164 169 190 162 168 181 176 186 182 190 186 207 192 169 190 179 178 180 198 194 205 200 215 222
239 244 260 249 265 170 172 142 175 162 187 189 169 181 167 187 182 188 193 191 185 174 202 183 177 207 190 204 194 188 193 211
254 241 241 237 240 247 166 185 164 166 180 179 187 180 150 189 182 178 196 188 203 174 187 209 180 194 197 196 198 202 183 212
296 283 244 248 15 358 317 185 159 168 170 187 204 207 199 190 187 185 189 195 197 208 178 201 198 182 182 180 189 182 204 228
280 285 291 13 323 293 314 313 181 168 175 185 198 204 211 203 195 195 197 195 202 176 205 181 184 226 169 172 193 183 206 236
262 272 300 280 206 32 324 322 239 168 171 183 193 211 218 207 210 207 194 196 203 193 204 184 176 200 183 184 194 198 207 213
234 239 246 277 351 143 233 301 283 208 167 199 199 203 215 221 208 211 197 183 191 199 201 188 187 188 199 197 214 196 211 221
210 197 198 212 223 198 185 237 286 230 204 198 212 208 215 212 217 217 206 188 192 196 197 199 203 193 198 195 201 212 206 184
280 221 198 200 205 195 192 196 221 259 241 222 223 227 242 232 213 212 211 200 192 190 195 207 206 198 193 218 195 191 195 222
11 355 20 13 357 266 190 198 195 224 259 253 232 221 221 228 216 213 212 200 188 187 202 209 204 202 201 204 211 198 190 205
347 356 349 351 346 333 309 335 276 226 209 225 249 261 245 238 231 233 210 192 180 192 201 203 203 213 201 200 202 199 203 209
359 350 339 351 346 341 346 358 4 347 317 243 230 247 255 251 237 225 225 225 196 199 201 205 203 204 208 199 191 203 200 206
345 327 332 328 332 334 342 348 331 324 315 313 288 239 248 250 249 227 225 219 219 205 200 203 210 202 201 195 200 198 198 191
315 295 288 293 296 303 330 320 311 310 305 294 287 286 250 240 237 235 227 221 224 225 218 206 206 210 204 192 197 190 190 202
242 263 242 271 301 306 310 308 297 298 297 292 279 273 276 247 236 230 229 218 217 219 206 222 216 207 201 191 198 202 190 189
325 357 316 310 288 273 282 304 293 280 285 278 292 280 263 274 234 230 231 228 226 213 199 212 215 208 196 188 192 195 181 183
321 302 294 303 284 281 266 286 300 299 298 289 291 305 281 256 266 238 230 233 239 234 206 206 210 207 195 181 187 183 185 186
337 337 320 312 309 326 321 286 286 284 290 292 307 305 297 316 278 241 237 226 237 237 349 321 209 209 295 206 190 179 172 185